[[{"header":{"parameterUnit":"m.s-1","parameterCategory":1,"la1":30.2991,"la2":30.254,"lo1":-89.0895,"lo2":-89.0444,"dy":0.0017,"dx":0.0017,"nx":28,"ny":28,"refTime":"2025-09-04T09:00:00:Z","depth":0,"parameterNumber":2,"parameterNumberName":"U-component_of_WINDS"},"data":[0,0,0,0,0,0,0,0,0,0,0,0,0,0,0,0,0,0,0,0,0,0,0,0,0,0,0,0,0,0,0,0,0,0,0,0,0,0,0,0,0,0,0,0,0,0,0,0,0,0,0,0,0,0,0,0,0,0,1.9774,1.9774,0,1.9792,1.9792,1.9792,1.9742,1.9741,1.9739,1.9738,1.9756,1.9758,1.9759,0,0,0,0,0,0,0,0,0,0,0,0,0,1.9694,1.9696,1.9774,1.9774,1.9774,1.9792,1.9792,1.9792,1.9742,1.9741,1.9739,1.9737,1.9755,1.9757,1.976,0,0,0,0,0,0,0,0,0,0,0,0,0,1.9722,1.9696,1.9774,1.9752,1.975,1.9792,1.9792,1.9792,1.9743,1.9741,1.9738,1.9736,1.9754,1.9757,1.976,1.9824,0,0,1.9769,1.977,0,0,0,0,0,0,0,0,1.9721,1.9725,1.9755,1.9753,1.9751,1.9762,1.977,1.9803,1.9743,1.9746,1.9738,1.9735,1.976,1.9762,1.9771,1.9825,1.9826,1.9769,1.9771,1.9772,1.9773,0,0,0,0,0,0,0,1.9719,1.9724,1.9781,1.9755,1.9753,1.974,1.9741,1.9776,1.9765,1.9745,1.9742,1.9744,1.9758,1.9768,1.9771,1.9826,1.9769,1.9772,1.9773,1.9774,1.993,1.9932,0,0,0,0,0,0,1.972,1.9723,1.978,1.9782,1.973,1.9743,1.9745,1.9761,1.9765,1.9763,1.9746,1.9742,1.9764,1.9767,1.9771,1.9843,1.9772,1.9775,1.9776,1.9927,1.993,1.9933,0,0,0,0,0,0,1.9718,1.9725,1.978,1.9751,1.9757,1.9747,1.9766,1.9763,1.9772,1.9766,1.9763,1.9758,1.9762,1.9767,1.981,1.9843,1.9776,1.9779,1.9925,1.9928,1.9932,1.999,0,0,0,0,0,0,1.9716,1.9725,1.975,1.9752,1.9759,1.982,1.9768,1.9765,1.9777,1.9772,1.9776,1.9775,1.9761,1.9806,1.9813,1.9846,1.9781,1.9921,1.9926,1.993,1.9985,1.9995,2.0004,0,0,0,0,0,1.9714,1.9767,1.9752,1.9759,1.979,1.9822,1.9826,1.9809,1.978,1.9804,1.98,1.9775,1.9839,1.9811,1.9819,1.9853,1.9919,1.9925,1.993,1.9981,1.9993,2.0003,0,0,0,0,0,0,1.977,1.9767,1.975,1.9806,1.9814,1.9813,1.9844,1.9823,1.984,1.9834,1.9812,1.9813,1.986,1.9861,1.983,1.9913,1.9874,1.9881,1.991,1.9922,1.9931,1.9928,1.9783,0,0,0,0,0,1.9789,1.9816,1.9811,1.9861,1.9866,1.9854,1.9868,1.9853,1.9861,1.9865,1.9863,1.9872,1.9893,1.9908,1.9928,1.9985,1.9984,2.0012,2.0022,2.0029,2.0035,2.0061,2.0073,1.995,1.995,1.995,0,0,1.9829,1.983,1.9849,1.9872,1.9877,1.9903,1.9858,1.9889,1.9907,1.9869,1.9909,1.9909,1.9916,1.9966,1.9988,1.9968,2.0068,2.0036,2.0042,2.0044,2.0068,2.0079,2.009,1.9954,1.9953,1.9953,0,0,1.9914,1.9919,1.9959,1.9964,1.9971,1.9963,1.9972,1.9974,1.9971,2.0011,1.9982,2.0004,2.0043,2.0048,2.0055,2.0139,2.0115,2.0146,2.0194,2.022,2.023,2.0238,2.0264,2.0274,2.0152,2.0153,2.0153,0,1.9962,2.0001,1.9982,2.0013,2.0023,1.9989,2.0028,2.0034,2.0048,2.0055,2.0033,2.0078,2.0081,2.013,2.015,2.0159,2.0166,2.0145,2.023,2.0238,2.0246,2.027,2.0281,2.0156,2.0156,2.0155,2.0155,0,2.0058,2.0085,2.0116,2.0128,2.0142,2.0178,2.0162,2.0178,2.0163,2.0156,2.0195,2.0197,2.0214,2.0226,2.0212,2.0271,2.0258,2.0234,2.0194,2.0261,2.0284,2.0293,2.0161,2.016,2.0159,2.0158,0,0,2.0179,2.0178,2.019,2.0193,2.0198,2.0218,2.025,2.0267,2.0279,2.029,2.0315,2.0347,2.0323,2.0332,2.0318,2.0341,2.0402,2.0313,2.0313,2.0327,2.0464,2.048,2.0491,2.0387,2.0389,2.0391,2.0462,0,2.026,2.0315,2.0297,2.0352,2.0375,2.0342,2.037,2.0375,2.0369,2.0387,2.038,2.0402,2.0371,2.0375,2.0397,2.039,2.0429,2.0386,2.0408,2.0409,2.0404,2.0504,2.0522,2.0589,2.0471,2.0473,2.0474,0,2.0361,2.0373,2.043,2.0427,2.0436,2.0461,2.0473,2.0491,2.0495,2.0489,2.0497,2.0477,2.0507,2.0469,2.0508,2.0479,2.0487,2.0485,2.0487,2.0486,2.0443,2.0502,2.061,2.0619,2.0488,2.0487,2.0486,0,2.0439,2.047,2.0507,2.0511,2.051,2.0527,2.0527,2.0529,2.0539,2.055,2.0555,2.057,2.0577,2.0588,2.0572,2.0546,2.0612,2.0573,2.0605,2.0606,2.0619,2.0618,2.0726,2.063,2.0629,2.0629,2.0629,0,2.0529,2.0564,2.0541,2.0563,2.0601,2.058,2.0618,2.0614,2.0615,2.0635,2.0609,2.0628,2.0607,2.0623,2.0611,2.0643,2.0648,2.0642,2.0638,2.0642,2.0643,2.0646,2.0639,2.0632,2.0631,2.0631,2.063,0,2.0622,2.0608,2.0645,2.064,2.0639,2.0667,2.0661,2.0681,2.0672,2.0698,2.0702,2.0689,2.0707,2.0692,2.0711,2.0702,2.0744,2.0735,2.0742,2.0738,2.077,2.0765,2.0881,2.0894,2.0792,2.0793,2.0794,0,2.0679,2.0704,2.0701,2.0711,2.0713,2.0732,2.074,2.0721,2.0731,2.0736,2.0754,2.077,2.0781,2.0811,2.0802,2.0815,2.0804,2.0844,2.0806,2.0808,2.08,2.0797,2.0798,2.085,2.0852,2.0853,2.0853,0,2.078,2.0771,2.0785,2.0796,2.0807,2.0815,2.0821,2.0831,2.081,2.0823,2.084,2.0849,2.0866,2.0881,2.089,2.089,2.0867,2.0866,2.0873,2.0877,2.0878,2.0874,2.0759,2.0863,2.0862,2.0861,2.0861,2.086,2.0854,2.0873,2.0873,2.0888,2.089,2.0895,2.0912,2.0905,2.0919,2.093,2.0918,2.0938,2.0938,2.0949,2.095,2.0965,2.0948,2.096,2.0962,2.0965,2.0967,2.0879,2.0967,2.0967,2.0966,2.0966,2.0966,0,2.095,2.0947,2.0962,2.0969,2.0981,2.0959,2.0963,2.0974,2.0992,2.0994,2.1005,2.1023,2.1036,2.1028,2.1039,2.1052,2.1042,2.1056,2.1053,2.1052,2.0984,2.0974,2.1063,2.1063,2.1063,2.1063,2.1063,2.1063,2.1001,2.1032,2.1023,2.1053,2.105,2.1069,2.1073,2.1077,2.1077,2.1099,2.1109,2.1104,2.1101,2.1111,2.1121,2.1119,2.1122,2.1139,2.1132,2.1067,2.1058,2.1049,2.1039,2.1141,2.1141,2.1199,2.12,2.12]},{"header":{"parameterUnit":"m.s-1","parameterCategory":1,"la1":30.2991,"la2":30.254,"lo1":-89.0895,"lo2":-89.0444,"dy":0.0017,"dx":0.0017,"nx":28,"ny":28,"refTime":"2025-09-04T09:00:00:Z","depth":0,"parameterNumber":3,"parameterNumberName":"V-component_of_WINDS"},"data":[0,0,0,0,0,0,0,0,0,0,0,0,0,0,0,0,0,0,0,0,0,0,0,0,0,0,0,0,0,0,0,0,0,0,0,0,0,0,0,0,0,0,0,0,0,0,0,0,0,0,0,0,0,0,0,0,0,0,0.7694,0.7695,0,0.7797,0.7798,0.7799,0.7826,0.7826,0.7825,0.7825,0.793,0.7933,0.7936,0,0,0,0,0,0,0,0,0,0,0,0,0,0.7519,0.7522,0.7694,0.7695,0.7697,0.7797,0.7798,0.78,0.7827,0.7826,0.7825,0.7824,0.7928,0.7932,0.7936,0,0,0,0,0,0,0,0,0,0,0,0,0,0.7606,0.7523,0.7694,0.7722,0.7726,0.7797,0.7798,0.78,0.7827,0.7826,0.7825,0.7824,0.7927,0.7932,0.7937,0.7987,0,0,0.7952,0.7955,0,0,0,0,0,0,0,0,0.7601,0.7612,0.7717,0.772,0.7724,0.7798,0.7775,0.7863,0.7827,0.7788,0.7825,0.7824,0.7886,0.7895,0.7916,0.7992,0.7996,0.7953,0.7956,0.7958,0.796,0,0,0,0,0,0,0,0.7595,0.7608,0.7735,0.7718,0.7723,0.7729,0.774,0.7792,0.7841,0.7792,0.7794,0.7806,0.7888,0.7911,0.7919,0.7998,0.7953,0.7957,0.796,0.7962,0.8117,0.8118,0,0,0,0,0,0,0.7584,0.7602,0.7731,0.7738,0.7659,0.7733,0.7746,0.7775,0.7841,0.785,0.7806,0.7807,0.7903,0.7913,0.7923,0.7984,0.7958,0.7963,0.7966,0.8116,0.8118,0.8119,0,0,0,0,0,0,0.758,0.7595,0.7727,0.7671,0.7688,0.7737,0.777,0.7778,0.7801,0.7852,0.7861,0.7821,0.7903,0.7915,0.797,0.7988,0.7965,0.797,0.8115,0.8117,0.8118,0.8109,0,0,0,0,0,0,0.7575,0.7594,0.7614,0.7671,0.7691,0.7774,0.7771,0.778,0.7809,0.7811,0.7868,0.7876,0.7903,0.7963,0.7975,0.7995,0.7974,0.8114,0.8116,0.8118,0.8107,0.811,0.8111,0,0,0,0,0,0.7568,0.7607,0.7615,0.763,0.7717,0.7775,0.7786,0.7816,0.7811,0.7831,0.7863,0.7875,0.7984,0.7968,0.7983,0.8004,0.8113,0.8115,0.8117,0.8107,0.8109,0.8111,0,0,0,0,0,0,0.7551,0.7615,0.7624,0.7683,0.7723,0.7779,0.7806,0.7818,0.7861,0.7861,0.7895,0.7908,0.796,0.7988,0.7968,0.8054,0.8048,0.8054,0.8035,0.8038,0.804,0.8032,0.7978,0,0,0,0,0,0.7554,0.7596,0.765,0.7696,0.7716,0.7757,0.7784,0.7803,0.7846,0.7863,0.79,0.7941,0.7985,0.8013,0.8056,0.8111,0.8123,0.8133,0.8135,0.8136,0.814,0.817,0.8175,0.8127,0.8127,0.8127,0,0,0.7561,0.7601,0.7626,0.7694,0.7727,0.7769,0.7772,0.7816,0.7847,0.787,0.7924,0.7952,0.8,0.8055,0.8081,0.8079,0.8156,0.8139,0.814,0.8144,0.8173,0.8177,0.8181,0.8128,0.8128,0.8128,0,0,0.7595,0.763,0.7671,0.7704,0.7755,0.7782,0.7791,0.7846,0.7865,0.7919,0.7937,0.7974,0.8048,0.8081,0.8108,0.8151,0.8162,0.8164,0.8175,0.8203,0.8207,0.821,0.8225,0.823,0.8168,0.8168,0.8168,0,0.7597,0.7661,0.7691,0.7735,0.7763,0.7785,0.7827,0.7858,0.7919,0.7938,0.7935,0.8028,0.8062,0.8124,0.8134,0.8155,0.8167,0.8158,0.8204,0.8208,0.8211,0.8226,0.8231,0.8168,0.8168,0.8168,0.8168,0,0.7661,0.7705,0.7732,0.7791,0.7822,0.7865,0.79,0.7929,0.7944,0.7971,0.8025,0.8066,0.8117,0.8133,0.815,0.8197,0.8194,0.8197,0.8192,0.8215,0.8229,0.8235,0.8168,0.8168,0.8168,0.8168,0,0,0.7688,0.7761,0.7771,0.7797,0.7853,0.7887,0.7929,0.7979,0.8002,0.8043,0.8079,0.814,0.8143,0.8173,0.8192,0.8217,0.8247,0.8217,0.8219,0.8221,0.8301,0.8298,0.8304,0.8255,0.8256,0.8257,0.8297,0,0.7729,0.7806,0.7833,0.7896,0.7936,0.7956,0.7993,0.803,0.8056,0.8093,0.8121,0.8164,0.8164,0.8182,0.8208,0.8238,0.8264,0.8236,0.8288,0.8289,0.8275,0.8312,0.831,0.8345,0.8302,0.8303,0.8304,0,0.7787,0.7828,0.7895,0.7944,0.7962,0.7994,0.8041,0.8076,0.8119,0.8135,0.8167,0.8185,0.8229,0.822,0.828,0.826,0.8283,0.83,0.8303,0.8309,0.8298,0.8319,0.8358,0.8363,0.8313,0.8312,0.8312,0,0.7799,0.7871,0.792,0.7942,0.8001,0.8023,0.8048,0.809,0.8117,0.8157,0.8175,0.822,0.8244,0.8278,0.8306,0.8297,0.8363,0.8357,0.8378,0.8377,0.8391,0.839,0.8434,0.8406,0.8406,0.8405,0.8405,0,0.7842,0.7882,0.7926,0.7957,0.8001,0.8031,0.8075,0.8101,0.8137,0.8172,0.8192,0.8224,0.826,0.8296,0.8319,0.8364,0.8375,0.8389,0.8395,0.8388,0.8386,0.8403,0.8401,0.8407,0.8407,0.8406,0.8406,0,0.7864,0.7896,0.795,0.8,0.8014,0.8044,0.8087,0.8117,0.8142,0.8186,0.8198,0.8237,0.8281,0.8312,0.8369,0.8384,0.8433,0.8438,0.8418,0.8421,0.844,0.8437,0.8497,0.8506,0.8471,0.8471,0.8471,0,0.7889,0.792,0.7973,0.7997,0.8023,0.8062,0.809,0.812,0.8148,0.8197,0.822,0.8265,0.8302,0.8371,0.8404,0.8447,0.8454,0.8471,0.846,0.8451,0.8453,0.8451,0.8454,0.8473,0.8473,0.8474,0.8474,0,0.793,0.7943,0.7982,0.8026,0.8058,0.8094,0.8131,0.8149,0.8186,0.8215,0.826,0.8289,0.8346,0.839,0.8435,0.8461,0.8473,0.8477,0.8484,0.8477,0.8464,0.847,0.8423,0.8475,0.8475,0.8475,0.8475,0.8475,0.7954,0.7982,0.8023,0.8065,0.8095,0.8128,0.8158,0.8186,0.8224,0.8272,0.8287,0.8333,0.8373,0.8435,0.8461,0.8496,0.8496,0.8506,0.8509,0.8511,0.851,0.8458,0.8505,0.8505,0.8505,0.8505,0.8505,0,0.7995,0.8022,0.806,0.811,0.8142,0.8151,0.8191,0.8217,0.8257,0.8293,0.8329,0.8379,0.8422,0.8457,0.8501,0.8522,0.8529,0.8533,0.8531,0.8537,0.8508,0.8498,0.8526,0.8526,0.8526,0.8526,0.8526,0.8526,0.802,0.8067,0.8085,0.8147,0.8173,0.8218,0.824,0.827,0.8299,0.8354,0.8389,0.8412,0.8447,0.8493,0.8531,0.8541,0.8556,0.8558,0.8568,0.8541,0.8539,0.8536,0.8527,0.8561,0.8561,0.8594,0.8594,0.8594]}]]